QPF
0.08 0.07 0.07 0.06 0.04 0.05 0.07 0.08 0.09 0.09 0.10 0.11 0.08 0.06 0.05 0.04 0.04 0.05 0.06 0.11 0.13 0.10 0.07 0.07 0.06 0.06 0.06 0.06 0.05 0.05 0.06 0.06 0.04 0.04 0.05 0.06 0.08 0.08 0.10 0.11 0.12 0.09 0.07
0.06 0.05 0.05 0.06 0.06 0.06 0.08 0.09 0.08 0.07 0.07 0.10 0.13 0.14 0.11 0.08 0.07 0.06 0.07 0.13 0.13 0.11 0.09 0.09 0.08 0.07 0.08 0.08 0.07 0.07 0.07 0.07 0.05 0.04 0.04 0.05 0.07 0.08 0.08 0.10 0.07 0.05 0.04
0.06 0.06 0.05 0.06 0.05 0.05 0.06 0.09 0.09 0.10 0.09 0.09 0.11 0.14 0.17 0.16 0.13 0.11 0.13 0.15 0.13 0.10 0.09 0.08 0.08 0.08 0.08 0.07 0.08 0.08 0.06 0.05 0.04 0.04 0.04 0.05 0.06 0.06 0.06 0.05 0.04 0.05 0.05
0.05 0.05 0.05 0.05 0.04 0.03 0.04 0.07 0.10 0.12 0.12 0.08 0.06 0.06 0.08 0.10 0.12 0.15 0.17 0.17 0.15 0.12 0.11 0.10 0.09 0.09 0.08 0.07 0.08 0.07 0.06 0.05 0.04 0.04 0.05 0.06 0.08 0.05 0.04 0.05 0.05 0.05 0.04
0.07 0.05 0.05 0.06 0.04 0.02 0.03 0.05 0.06 0.10 0.15 0.12 0.08 0.06 0.05 0.05 0.07 0.11 0.15 0.15 0.14 0.13 0.12 0.12 0.12 0.12 0.11 0.09 0.09 0.09 0.08 0.07 0.06 0.05 0.05 0.05 0.05 0.04 0.03 0.03 0.03 0.04 0.05
0.04 0.04 0.04 0.06 0.05 0.04 0.03 0.04 0.04 0.07 0.12 0.12 0.07 0.07 0.08 0.09 0.08 0.06 0.06 0.09 0.10 0.10 0.10 0.09 0.10 0.12 0.13 0.12 0.11 0.11 0.11 0.10 0.09 0.09 0.09 0.08 0.07 0.06 0.05 0.04 0.02 0.02 0.03
0.03 0.03 0.04 0.05 0.05 0.06 0.06 0.07 0.07 0.08 0.10 0.10 0.09 0.09 0.10 0.10 0.10 0.09 0.07 0.06 0.06 0.07 0.09 0.11 0.11 0.11 0.11 0.11 0.11 0.12 0.13 0.16 0.16 0.15 0.12 0.10 0.09 0.07 0.06 0.06 0.04 0.03 0.03
0.02 0.03 0.05 0.06 0.09 0.13 0.15 0.14 0.11 0.10 0.11 0.12 0.12 0.12 0.13 0.13 0.13 0.12 0.10 0.10 0.10 0.09 0.10 0.10 0.11 0.11 0.10 0.11 0.12 0.12 0.14 0.22 0.21 0.18 0.15 0.12 0.10 0.07 0.05 0.04 0.04 0.03 0.03
0.03 0.04 0.06 0.09 0.14 0.14 0.12 0.12 0.12 0.12 0.13 0.13 0.13 0.16 0.16 0.16 0.17 0.17 0.14 0.12 0.11 0.11 0.10 0.10 0.10 0.09 0.09 0.09 0.09 0.11 0.12 0.13 0.14 0.14 0.18 0.17 0.10 0.08 0.06 0.03 0.03 0.04 0.05
0.04 0.04 0.10 0.14 0.14 0.10 0.07 0.08 0.09 0.08 0.10 0.10 0.10 0.12 0.14 0.15 0.17 0.18 0.14 0.12 0.11 0.11 0.09 0.08 0.08 0.07 0.07 0.08 0.08 0.07 0.08 0.09 0.09 0.09 0.11 0.10 0.07 0.06 0.06 0.05 0.04 0.04 0.04
0.04 0.04 0.06 0.09 0.12 0.12 0.10 0.07 0.06 0.05 0.06 0.07 0.09 0.08 0.10 0.12 0.14 0.14 0.12 0.11 0.11 0.10 0.09 0.08 0.06 0.05 0.05 0.07 0.08 0.07 0.07 0.06 0.06 0.06 0.07 0.06 0.05 0.05 0.05 0.06 0.05 0.04 0.04
0.07 0.06 0.05 0.05 0.07 0.07 0.07 0.05 0.04 0.05 0.05 0.05 0.06 0.07 0.08 0.10 0.11 0.11 0.11 0.09 0.08 0.07 0.07 0.06 0.06 0.05 0.05 0.05 0.05 0.06 0.06 0.06 0.05 0.04 0.04 0.05 0.05 0.06 0.05 0.05 0.05 0.05 0.05
0.08 0.09 0.07 0.06 0.06 0.05 0.05 0.05 0.04 0.04 0.04 0.05 0.05 0.05 0.05 0.06 0.07 0.07 0.09 0.07 0.05 0.05 0.04 0.04 0.05 0.05 0.04 0.03 0.04 0.04 0.04 0.05 0.05 0.04 0.03 0.03 0.04 0.05 0.06 0.06 0.07 0.07 0.06
0.04 0.06 0.07 0.05 0.04 0.04 0.05 0.05 0.04 0.04 0.05 0.05 0.05 0.06 0.06 0.07 0.06 0.05 0.06 0.06 0.05 0.05 0.05 0.05 0.04 0.04 0.03 0.02 0.03 0.04 0.03 0.03 0.03 0.04 0.04 0.03 0.03 0.03 0.03 0.04 0.06 0.06 0.05
0.01 0.02 0.02 0.02 0.02 0.02 0.03 0.06 0.05 0.04 0.05 0.05 0.06 0.06 0.06 0.06 0.06 0.05 0.05 0.05 0.06 0.06 0.05 0.06 0.04 0.03 0.02 0.02 0.01 0.01 0.02 0.03 0.03 0.03 0.04 0.04 0.04 0.03 0.03 0.03 0.03 0.04 0.05
0.01 0.01 0.01 0.01 0.01 0.01 0.02 0.04 0.05 0.05 0.05 0.06 0.06 0.07 0.07 0.06 0.05 0.05 0.04 0.04 0.05 0.05 0.05 0.05 0.03 0.02 0.02 0.01 0.01 0.01 0.01 0.02 0.01 0.02 0.03 0.04 0.04 0.04 0.03 0.03 0.03 0.03 0.04
0.01 0.01 0.01 0.01 0.00 0.01 0.01 0.03 0.04 0.07 0.06 0.07 0.08 0.08 0.08 0.07 0.05 0.04 0.05 0.05 0.05 0.05 0.04 0.04 0.03 0.03 0.03 0.03 0.02 0.02 0.01 0.01 0.01 0.01 0.01 0.02 0.03 0.04 0.04 0.04 0.05 0.04 0.03
0.01 0.01 0.01 0.01 0.00 0.01 0.01 0.01 0.02 0.06 0.07 0.06 0.06 0.06 0.06 0.07 0.07 0.06 0.05 0.06 0.05 0.05 0.04 0.04 0.03 0.03 0.03 0.05 0.04 0.03 0.02 0.02 0.01 0.01 0.01 0.01 0.01 0.03 0.04 0.04 0.04 0.05 0.04
0.01 0.01 0.01 0.01 0.01 0.01 0.01 0.02 0.01 0.02 0.04 0.03 0.04 0.04 0.04 0.04 0.05 0.06 0.06 0.05 0.05 0.06 0.05 0.05 0.03 0.04 0.04 0.05 0.05 0.03 0.03 0.02 0.01 0.01 0.01 0.01 0.01 0.01 0.03 0.05 0.05 0.04 0.05
0.01 0.01 0.01 0.01 0.01 0.02 0.02 0.02 0.02 0.02 0.02 0.02 0.02 0.03 0.04 0.04 0.04 0.04 0.04 0.04 0.05 0.07 0.07 0.05 0.04 0.04 0.05 0.05 0.04 0.03 0.03 0.03 0.02 0.01 0.01 0.01 0.01 0.01 0.01 0.03 0.05 0.06 0.06
0.01 0.01 0.01 0.01 0.01 0.01 0.02 0.02 0.03 0.03 0.02 0.02 0.02 0.02 0.02 0.03 0.03 0.04 0.04 0.04 0.05 0.06 0.07 0.07 0.06 0.06 0.05 0.05 0.04 0.03 0.03 0.03 0.03 0.02 0.02 0.02 0.01 0.01 0.01 0.02 0.03 0.04 0.06
0.01 0.01 0.01 0.01 0.01 0.01 0.02 0.04 0.03 0.04 0.04 0.04 0.03 0.03 0.02 0.02 0.03 0.03 0.03 0.04 0.05 0.04 0.06 0.08 0.07 0.05 0.04 0.04 0.04 0.03 0.03 0.03 0.03 0.03 0.03 0.03 0.04 0.03 0.03 0.03 0.03 0.03 0.04
0.01 0.01 0.01 0.01 0.01 0.02 0.03 0.05 0.04 0.04 0.04 0.05 0.05 0.04 0.03 0.03 0.03 0.03 0.04 0.04 0.04 0.04 0.04 0.05 0.05 0.04 0.03 0.03 0.04 0.04 0.03 0.03 0.04 0.06 0.04 0.04 0.05 0.04 0.04 0.03 0.04 0.04 0.04
0.01 0.01 0.01 0.01 0.01 0.01 0.02 0.02 0.04 0.05 0.03 0.03 0.04 0.04 0.04 0.05 0.05 0.04 0.05 0.05 0.04 0.04 0.03 0.04 0.04 0.04 0.04 0.05 0.06 0.05 0.05 0.05 0.05 0.06 0.05 0.04 0.06 0.05 0.05 0.05 0.05 0.06 0.06
0.01 0.01 0.01 0.00 0.01 0.01 0.02 0.03 0.04 0.05 0.05 0.05 0.03 0.03 0.03 0.04 0.04 0.04 0.04 0.04 0.05 0.05 0.04 0.05 0.05 0.05 0.06 0.05 0.06 0.07 0.06 0.06 0.04 0.04 0.05 0.04 0.05 0.06 0.05 0.06 0.05 0.06 0.06
0.01 0.01 0.01 0.01 0.01 0.02 0.02 0.03 0.04 0.02 0.02 0.02 0.02 0.02 0.02 0.02 0.02 0.02 0.03 0.04 0.05 0.06 0.07 0.07 0.06 0.06 0.06 0.05 0.04 0.05 0.05 0.06 0.05 0.05 0.05 0.05 0.05 0.05 0.04 0.04 0.05 0.05 0.05
MSLP
1009.23 1010.11 1011.07 1012.08 1013.10 1014.06 1014.91 1015.63 1016.19 1016.61 1016.92 1017.17 1017.39 1017.61 1017.86 1018.14 1018.43 1018.76 1019.09 1019.43 1019.77 1020.09 1020.40 1020.67 1020.90 1021.08 1021.19 1021.26 1021.27 1021.26 1021.23 1021.21 1021.22 1021.26 1021.33 1021.41 1021.49 1021.55 1021.57 1021.53 1021.45 1021.34 1021.20
1009.88 1010.77 1011.73 1012.75 1013.77 1014.73 1015.58 1016.27 1016.81 1017.20 1017.47 1017.67 1017.84 1018.01 1018.20 1018.41 1018.64 1018.90 1019.17 1019.46 1019.76 1020.05 1020.34 1020.61 1020.84 1021.03 1021.16 1021.22 1021.24 1021.21 1021.17 1021.13 1021.11 1021.13 1021.17 1021.23 1021.29 1021.34 1021.34 1021.30 1021.21 1021.08 1020.94
1010.63 1011.49 1012.43 1013.42 1014.42 1015.34 1016.16 1016.82 1017.32 1017.68 1017.93 1018.11 1018.24 1018.37 1018.50 1018.65 1018.81 1018.99 1019.18 1019.39 1019.61 1019.85 1020.10 1020.34 1020.57 1020.77 1020.91 1020.99 1021.02 1021.00 1020.95 1020.90 1020.86 1020.85 1020.86 1020.89 1020.92 1020.94 1020.93 1020.88 1020.79 1020.68 1020.54
1011.43 1012.24 1013.14 1014.08 1015.02 1015.88 1016.64 1017.25 1017.71 1018.04 1018.27 1018.43 1018.55 1018.66 1018.75 1018.84 1018.92 1019.01 1019.10 1019.20 1019.33 1019.49 1019.67 1019.88 1020.08 1020.28 1020.43 1020.54 1020.59 1020.59 1020.56 1020.51 1020.46 1020.42 1020.40 1020.39 1020.39 1020.39 1020.36 1020.31 1020.23 1020.14 1020.04
1012.22 1012.98 1013.82 1014.69 1015.54 1016.33 1017.01 1017.55 1017.97 1018.27 1018.49 1018.65 1018.76 1018.85 1018.91 1018.95 1018.97 1018.96 1018.95 1018.94 1018.96 1019.01 1019.11 1019.25 1019.42 1019.60 1019.77 1019.90 1019.99 1020.03 1020.02 1019.98 1019.93 1019.88 1019.84 1019.80 1019.77 1019.73 1019.70 1019.65 1019.59 1019.53 1019.47
1012.98 1013.69 1014.46 1015.25 1016.01 1016.69 1017.28 1017.75 1018.12 1018.39 1018.60 1018.76 1018.88 1018.96 1019.01 1019.01 1018.97 1018.88 1018.77 1018.65 1018.55 1018.49 1018.49 1018.56 1018.68 1018.84 1019.01 1019.16 1019.28 1019.36 1019.40 1019.40 1019.36 1019.31 1019.25 1019.19 1019.14 1019.08 1019.03 1018.99 1018.96 1018.93 1018.91
1013.70 1014.35 1015.05 1015.75 1016.41 1016.99 1017.49 1017.89 1018.20 1018.44 1018.64 1018.80 1018.93 1019.03 1019.07 1019.05 1018.96 1018.81 1018.61 1018.39 1018.18 1018.02 1017.92 1017.91 1017.96 1018.09 1018.24 1018.41 1018.57 1018.70 1018.78 1018.82 1018.82 1018.79 1018.73 1018.67 1018.60 1018.53 1018.47 1018.42 1018.40 1018.39 1018.40
1014.37 1014.98 1015.60 1016.21 1016.77 1017.26 1017.66 1017.98 1018.25 1018.47 1018.66 1018.82 1018.96 1019.07 1019.11 1019.08 1018.97 1018.77 1018.51 1018.22 1017.92 1017.66 1017.47 1017.37 1017.36 1017.43 1017.57 1017.74 1017.92 1018.09 1018.23 1018.32 1018.37 1018.38 1018.35 1018.29 1018.22 1018.14 1018.07 1018.02 1017.99 1017.99 1018.02
1015.00 1015.56 1016.11 1016.64 1017.10 1017.50 1017.82 1018.09 1018.31 1018.50 1018.67 1018.84 1018.98 1019.09 1019.15 1019.11 1018.99 1018.78 1018.48 1018.14 1017.78 1017.45 1017.19 1017.01 1016.92 1016.94 1017.04 1017.20 1017.39 1017.59 1017.78 1017.93 1018.03 1018.09 1018.11 1018.08 1018.02 1017.95 1017.87 1017.80 1017.76 1017.75 1017.77
1015.59 1016.09 1016.57 1017.01 1017.40 1017.72 1017.98 1018.19 1018.37 1018.54 1018.70 1018.85 1018.99 1019.10 1019.15 1019.12 1019.00 1018.79 1018.49 1018.13 1017.74 1017.37 1017.04 1016.80 1016.65 1016.60 1016.65 1016.78 1016.97 1017.18 1017.41 1017.61 1017.79 1017.91 1017.98 1018.00 1017.97 1017.91 1017.83 1017.76 1017.70 1017.67 1017.66
1016.11 1016.55 1016.96 1017.32 1017.64 1017.90 1018.11 1018.28 1018.43 1018.57 1018.70 1018.83 1018.95 1019.04 1019.09 1019.07 1018.96 1018.76 1018.48 1018.13 1017.74 1017.35 1016.99 1016.69 1016.48 1016.37 1016.36 1016.44 1016.60 1016.82 1017.07 1017.33 1017.56 1017.75 1017.89 1017.97 1017.98 1017.96 1017.89 1017.82 1017.75 1017.69 1017.66
1016.55 1016.91 1017.25 1017.55 1017.81 1018.02 1018.20 1018.34 1018.45 1018.55 1018.65 1018.75 1018.84 1018.90 1018.93 1018.91 1018.82 1018.64 1018.40 1018.08 1017.72 1017.33 1016.96 1016.62 1016.35 1016.17 1016.10 1016.12 1016.25 1016.45 1016.71 1016.99 1017.28 1017.53 1017.74 1017.89 1017.97 1017.98 1017.95 1017.89 1017.82 1017.76 1017.70
1016.87 1017.16 1017.42 1017.66 1017.88 1018.06 1018.21 1018.32 1018.41 1018.47 1018.53 1018.58 1018.61 1018.65 1018.65 1018.62 1018.55 1018.41 1018.21 1017.94 1017.61 1017.25 1016.88 1016.52 1016.21 1015.97 1015.82 1015.78 1015.85 1016.02 1016.27 1016.57 1016.89 1017.20 1017.47 1017.68 1017.83 1017.90 1017.92 1017.90 1017.84 1017.78 1017.73
1017.06 1017.27 1017.47 1017.67 1017.86 1018.02 1018.14 1018.23 1018.29 1018.32 1018.32 1018.32 1018.30 1018.28 1018.26 1018.23 1018.17 1018.06 1017.91 1017.70 1017.42 1017.09 1016.73 1016.36 1016.01 1015.72 1015.51 1015.39 1015.40 1015.51 1015.73 1016.02 1016.36 1016.70 1017.02 1017.30 1017.51 1017.65 1017.72 1017.75 1017.74 1017.72 1017.69
1017.11 1017.27 1017.43 1017.59 1017.76 1017.90 1018.02 1018.09 1018.11 1018.10 1018.05 1017.99 1017.92 1017.86 1017.80 1017.76 1017.71 1017.64 1017.53 1017.38 1017.15 1016.86 1016.52 1016.15 1015.77 1015.43 1015.15 1014.97 1014.90 1014.96 1015.12 1015.39 1015.71 1016.07 1016.41 1016.73 1016.99 1017.19 1017.33 1017.42 1017.47 1017.50 1017.52
1017.06 1017.17 1017.31 1017.46 1017.61 1017.75 1017.84 1017.90 1017.90 1017.84 1017.75 1017.63 1017.51 1017.41 1017.33 1017.28 1017.24 1017.20 1017.14 1017.02 1016.84 1016.59 1016.28 1015.90 1015.51 1015.12 1014.79 1014.54 1014.41 1014.40 1014.50 1014.71 1015.00 1015.33 1015.67 1016.00 1016.29 1016.53 1016.73 1016.88 1017.00 1017.10 1017.19
1016.93 1017.03 1017.16 1017.30 1017.45 1017.57 1017.66 1017.69 1017.66 1017.57 1017.44 1017.28 1017.12 1016.99 1016.89 1016.83 1016.80 1016.78 1016.74 1016.67 1016.53 1016.31 1016.01 1015.64 1015.24 1014.83 1014.46 1014.16 1013.96 1013.88 1013.91 1014.05 1014.27 1014.55 1014.85 1015.16 1015.44 1015.70 1015.93 1016.14 1016.33 1016.51 1016.67
1016.78 1016.87 1017.00 1017.14 1017.28 1017.40 1017.47 1017.48 1017.42 1017.30 1017.13 1016.94 1016.76 1016.60 1016.48 1016.42 1016.40 1016.39 1016.38 1016.33 1016.21 1016.02 1015.73 1015.38 1014.97 1014.55 1014.15 1013.81 1013.56 1013.41 1013.37 1013.42 1013.57 1013.76 1013.99 1014.24 1014.49 1014.73 1014.98 1015.22 1015.47 1015.72 1015.98
1016.60 1016.70 1016.83 1016.97 1017.09 1017.20 1017.24 1017.23 1017.14 1016.99 1016.80 1016.59 1016.39 1016.22 1016.10 1016.04 1016.01 1016.02 1016.01 1015.97 1015.87 1015.68 1015.42 1015.08 1014.68 1014.26 1013.85 1013.48 1013.19 1012.98 1012.87 1012.84 1012.88 1012.98 1013.12 1013.29 1013.47 1013.68 1013.91 1014.18 1014.47 1014.80 1015.14
1016.42 1016.52 1016.63 1016.76 1016.86 1016.93 1016.96 1016.91 1016.80 1016.63 1016.42 1016.19 1015.98 1015.81 1015.69 1015.62 1015.59 1015.59 1015.58 1015.54 1015.44 1015.26 1015.01 1014.68 1014.30 1013.89 1013.49 1013.12 1012.80 1012.54 1012.36 1012.25 1012.20 1012.20 1012.23 1012.31 1012.42 1012.58 1012.79 1013.06 1013.39 1013.78 1014.20
1016.21 1016.29 1016.38 1016.47 1016.54 1016.58 1016.56 1016.48 1016.34 1016.15 1015.93 1015.70 1015.48 1015.31 1015.18 1015.10 1015.07 1015.05 1015.03 1014.98 1014.87 1014.70 1014.45 1014.14 1013.78 1013.40 1013.01 1012.65 1012.32 1012.03 1011.80 1011.61 1011.48 1011.38 1011.33 1011.32 1011.36 1011.47 1011.66 1011.93 1012.29 1012.73 1013.23
1015.94 1015.99 1016.04 1016.09 1016.11 1016.10 1016.03 1015.92 1015.76 1015.55 1015.32 1015.08 1014.87 1014.69 1014.56 1014.47 1014.41 1014.37 1014.32 1014.25 1014.13 1013.95 1013.72 1013.42 1013.09 1012.73 1012.37 1012.02 1011.69 1011.39 1011.12 1010.88 1010.68 1010.51 1010.38 1010.31 1010.30 1010.38 1010.56 1010.85 1011.25 1011.74 1012.30
1015.62 1015.62 1015.61 1015.60 1015.57 1015.50 1015.40 1015.25 1015.06 1014.84 1014.60 1014.37 1014.15 1013.97 1013.82 1013.71 1013.62 1013.55 1013.47 1013.36 1013.22 1013.04 1012.80 1012.53 1012.22 1011.89 1011.55 1011.22 1010.90 1010.59 1010.30 1010.03 1009.79 1009.58 1009.41 1009.30 1009.28 1009.36 1009.56 1009.88 1010.32 1010.86 1011.48
1015.25 1015.18 1015.12 1015.04 1014.96 1014.85 1014.71 1014.53 1014.33 1014.10 1013.85 1013.62 1013.39 1013.19 1013.02 1012.88 1012.75 1012.63 1012.51 1012.36 1012.20 1011.99 1011.75 1011.49 1011.20 1010.89 1010.58 1010.27 1009.96 1009.66 1009.36 1009.08 1008.82 1008.59 1008.42 1008.33 1008.32 1008.44 1008.68 1009.05 1009.55 1010.15 1010.83
1014.85 1014.73 1014.60 1014.48 1014.35 1014.21 1014.04 1013.85 1013.64 1013.41 1013.16 1012.92 1012.68 1012.46 1012.25 1012.06 1011.88 1011.70 1011.52 1011.33 1011.12 1010.89 1010.64 1010.38 1010.09 1009.80 1009.51 1009.21 1008.91 1008.62 1008.33 1008.05 1007.79 1007.59 1007.45 1007.39 1007.44 1007.62 1007.93 1008.37 1008.93 1009.59 1010.31
1014.47 1014.30 1014.13 1013.97 1013.82 1013.66 1013.48 1013.29 1013.08 1012.85 1012.61 1012.35 1012.10 1011.84 1011.58 1011.33 1011.08 1010.84 1010.59 1010.33 1010.07 1009.80 1009.53 1009.25 1008.97 1008.69 1008.40 1008.11 1007.83 1007.54 1007.26 1006.99 1006.77 1006.60 1006.50 1006.51 1006.63 1006.89 1007.28 1007.79 1008.42 1009.13 1009.89
Thickness
5781 5781 5778 5777 5779 5778 5776 5775 5775 5774 5774 5774 5774 5773 5772 5771 5770 5768 5766 5762 5759 5757 5755 5754 5753 5752 5751 5749 5748 5746 5745 5743 5741 5740 5738 5736 5735 5733 5730 5729 5727 5726 5725
5781 5780 5778 5777 5778 5777 5776 5776 5775 5774 5774 5773 5772 5772 5771 5771 5769 5767 5766 5763 5760 5758 5756 5754 5753 5752 5751 5750 5748 5747 5745 5744 5742 5740 5738 5737 5735 5733 5731 5729 5727 5726 5725
5779 5779 5778 5777 5777 5776 5775 5774 5774 5774 5773 5773 5772 5771 5771 5770 5769 5767 5766 5764 5762 5759 5757 5755 5754 5752 5751 5750 5748 5747 5746 5744 5743 5741 5739 5737 5735 5732 5730 5728 5727 5726 5724
5778 5778 5777 5777 5776 5776 5775 5774 5774 5773 5772 5771 5770 5771 5771 5769 5768 5767 5766 5764 5763 5762 5759 5756 5754 5753 5751 5750 5749 5748 5746 5745 5743 5741 5739 5737 5735 5732 5730 5728 5727 5725 5724
5778 5778 5777 5776 5775 5775 5775 5774 5773 5772 5770 5768 5769 5770 5770 5769 5768 5768 5766 5765 5763 5761 5760 5757 5755 5753 5751 5750 5749 5748 5747 5745 5744 5742 5740 5737 5735 5732 5730 5728 5726 5725 5724
5778 5777 5776 5774 5774 5774 5772 5771 5769 5768 5768 5767 5768 5768 5769 5769 5768 5768 5767 5766 5764 5762 5761 5759 5757 5755 5752 5750 5749 5748 5747 5746 5744 5742 5739 5737 5735 5732 5729 5728 5726 5724 5723
5778 5776 5776 5772 5772 5771 5769 5769 5768 5766 5766 5766 5765 5764 5767 5769 5767 5766 5766 5766 5765 5763 5761 5759 5758 5757 5755 5751 5749 5748 5747 5746 5744 5742 5739 5736 5734 5732 5729 5727 5725 5723 5721
5777 5777 5773 5772 5771 5769 5767 5766 5764 5764 5765 5765 5762 5760 5758 5761 5763 5767 5765 5764 5763 5762 5760 5759 5757 5755 5754 5753 5751 5748 5746 5744 5743 5740 5738 5735 5733 5731 5728 5727 5724 5722 5721
5776 5774 5773 5771 5769 5769 5766 5764 5763 5761 5760 5762 5762 5759 5755 5753 5757 5762 5761 5761 5760 5759 5759 5758 5756 5754 5752 5752 5750 5746 5744 5742 5740 5738 5736 5733 5731 5729 5727 5725 5723 5722 5720
5775 5773 5771 5770 5768 5767 5764 5763 5763 5761 5759 5759 5760 5760 5758 5756 5751 5752 5757 5759 5758 5756 5756 5756 5755 5753 5751 5750 5747 5744 5741 5739 5738 5736 5734 5732 5730 5728 5726 5724 5722 5720 5718
5775 5772 5770 5768 5766 5765 5764 5762 5761 5760 5760 5758 5758 5758 5756 5755 5753 5748 5747 5750 5753 5755 5755 5754 5753 5752 5750 5747 5745 5744 5740 5737 5736 5734 5733 5731 5728 5726 5725 5723 5721 5719 5717
5775 5772 5769 5767 5765 5763 5762 5760 5759 5759 5758 5757 5756 5756 5754 5752 5750 5749 5745 5745 5746 5750 5752 5752 5751 5749 5748 5746 5744 5741 5737 5735 5733 5731 5730 5728 5727 5725 5723 5722 5720 5718 5716
5774 5770 5769 5765 5763 5761 5760 5759 5758 5757 5756 5754 5753 5754 5753 5752 5751 5749 5745 5744 5744 5748 5749 5750 5750 5747 5745 5744 5742 5737 5735 5733 5731 5729 5727 5726 5724 5723 5721 5719 5718 5716 5714
5774 5770 5767 5764 5762 5761 5760 5758 5758 5756 5755 5753 5753 5751 5750 5750 5750 5748 5745 5742 5740 5743 5745 5746 5747 5746 5743 5741 5739 5735 5734 5731 5729 5727 5725 5723 5722 5721 5719 5717 5716 5714 5712
5773 5769 5767 5764 5762 5760 5758 5757 5756 5754 5753 5752 5752 5750 5749 5749 5748 5747 5746 5743 5738 5735 5738 5742 5743 5744 5741 5738 5736 5734 5733 5730 5727 5725 5722 5720 5719 5717 5716 5714 5712 5711 5709
5771 5768 5766 5763 5761 5759 5757 5756 5755 5753 5751 5750 5749 5746 5745 5746 5745 5745 5743 5742 5740 5736 5734 5740 5740 5742 5738 5736 5733 5732 5731 5728 5725 5723 5721 5718 5716 5715 5713 5712 5710 5708 5706
5770 5767 5764 5762 5760 5758 5756 5754 5753 5751 5749 5748 5746 5744 5742 5741 5742 5742 5741 5739 5738 5735 5731 5735 5737 5737 5733 5730 5730 5728 5728 5727 5726 5721 5718 5716 5714 5712 5710 5708 5707 5705 5703
5769 5766 5763 5761 5759 5757 5754 5752 5751 5749 5747 5745 5743 5741 5740 5740 5737 5736 5735 5735 5734 5732 5729 5726 5729 5730 5728 5727 5724 5722 5724 5725 5723 5720 5716 5713 5711 5709 5707 5705 5704 5702 5700
5767 5765 5762 5759 5757 5755 5753 5751 5749 5747 5745 5743 5741 5738 5737 5735 5733 5733 5730 5731 5730 5729 5727 5724 5724 5725 5724 5723 5719 5718 5719 5717 5718 5717 5714 5710 5708 5706 5704 5702 5700 5698 5696
5766 5763 5760 5758 5755 5753 5752 5750 5747 5745 5742 5740 5738 5736 5734 5732 5729 5728 5727 5725 5724 5722 5721 5720 5719 5719 5718 5718 5714 5712 5711 5712 5712 5713 5712 5709 5705 5703 5701 5699 5697 5695 5692
5765 5761 5757 5755 5753 5751 5750 5746 5744 5743 5740 5738 5736 5734 5732 5728 5725 5723 5723 5722 5720 5717 5717 5716 5715 5714 5712 5709 5707 5707 5705 5705 5707 5708 5706 5705 5703 5702 5699 5695 5692 5690 5688
5760 5757 5754 5752 5750 5749 5743 5739 5737 5738 5736 5734 5732 5730 5729 5726 5723 5719 5716 5714 5712 5711 5710 5709 5709 5707 5705 5704 5702 5701 5699 5698 5696 5702 5698 5698 5699 5698 5697 5694 5690 5687 5684
5756 5753 5751 5748 5745 5742 5737 5733 5731 5731 5732 5730 5728 5726 5725 5725 5720 5717 5715 5711 5709 5706 5704 5703 5702 5701 5700 5699 5696 5694 5693 5691 5690 5693 5691 5690 5692 5691 5691 5690 5686 5683 5679
5752 5748 5746 5744 5741 5738 5733 5729 5726 5727 5728 5726 5724 5722 5720 5718 5716 5711 5709 5708 5706 5705 5702 5698 5697 5697 5696 5693 5690 5688 5687 5686 5686 5687 5685 5682 5685 5685 5686 5684 5680 5677 5674
5746 5743 5741 5739 5736 5734 5728 5724 5719 5723 5723 5721 5720 5718 5715 5712 5708 5704 5702 5701 5700 5700 5698 5694 5692 5690 5687 5684 5682 5680 5680 5678 5678 5680 5680 5677 5677 5677 5678 5677 5674 5670 5667
5740 5738 5736 5733 5731 5728 5723 5718 5714 5718 5717 5716 5715 5714 5709 5705 5700 5696 5696 5695 5692 5692 5690 5689 5685 5683 5680 5679 5676 5674 5674 5672 5672 5672 5675 5670 5669 5668 5667 5670 5668 5665 5661